Wind_Speed
9 10 10 10 10 10 11 12 13 13 13 14 14 13 13 15 14 15 17 18 20 20 20 20 21 20 21 23 25 27 26 28 29 29 30 32 33 32 32 34 33 33 32 31
11 11 10 11 11 11 12 13 14 15 15 15 15 14 14 16 16 17 17 18 18 19 19 20 20 21 21 22 23 26 27 29 29 30 30 32 33 33 32 33 32 32 32 32
12 11 11 11 12 13 14 15 15 16 17 17 17 16 15 17 18 18 18 19 19 20 20 20 20 21 22 22 23 25 28 28 27 26 28 29 31 33 33 32 32 32 32 32
12 12 12 13 14 15 16 16 17 17 18 19 19 19 17 17 17 18 19 20 21 21 21 20 20 21 22 23 25 25 27 27 26 26 26 28 30 31 31 31 32 32 33 32
14 14 14 15 16 17 17 18 18 18 19 20 20 21 19 18 18 19 20 21 22 22 23 23 23 23 24 25 25 26 26 27 27 26 27 28 30 31 31 31 31 32 33 32
16 16 17 17 18 19 19 20 20 20 21 21 21 23 22 20 19 20 20 22 23 24 24 25 25 26 26 27 26 26 27 27 27 27 26 28 30 31 32 31 30 31 33 32
18 18 19 19 19 20 21 21 22 22 23 23 23 24 23 22 21 21 21 22 23 24 26 26 27 27 27 27 27 27 27 28 28 29 29 28 30 32 32 33 32 33 34 34
21 21 21 21 21 22 22 23 23 24 24 24 24 25 24 23 23 23 23 23 24 26 27 27 27 28 28 28 28 28 28 29 31 31 31 31 32 33 34 35 34 34 34 35
24 24 24 24 24 24 25 25 25 26 27 26 26 26 25 25 25 24 24 25 25 26 27 28 28 29 29 29 30 30 30 31 32 32 33 34 34 34 35 36 36 36 36 36
26 27 27 27 27 27 27 27 27 27 28 28 28 27 27 26 26 26 25 25 26 27 28 29 29 30 31 32 32 32 33 33 34 34 35 35 36 36 36 36 38 38 37 37
29 29 29 29 29 29 29 29 29 30 30 30 30 30 28 27 27 27 26 27 27 28 29 29 30 32 33 34 34 35 35 35 36 37 37 37 37 38 38 39 39 40 40 39
30 31 31 31 30 31 31 31 31 31 32 32 33 32 30 29 28 29 29 29 29 30 31 32 33 34 34 35 36 36 37 37 38 38 39 39 39 39 40 41 41 42 41 41
33 33 33 33 32 32 32 32 33 33 34 34 34 33 32 31 31 31 32 32 32 32 33 34 35 35 36 36 37 37 38 38 38 39 40 40 41 40 40 41 42 43 43 43
34 35 35 34 34 33 34 34 34 35 36 36 35 34 33 33 33 34 34 34 35 35 35 35 35 36 36 37 38 38 39 39 39 39 40 40 40 41 42 42 42 43 43 43
37 37 37 36 36 36 36 37 37 37 37 38 36 36 34 36 37 37 36 36 36 37 37 37 37 38 38 38 39 39 40 40 40 40 41 41 42 42 43 43 43 43 44 44
38 39 39 39 39 40 40 39 39 39 39 40 40 39 37 39 40 40 39 39 38 38 38 38 39 40 39 39 40 40 41 41 41 42 42 43 43 44 44 44 44 44 45 45
41 41 42 42 42 43 43 40 40 41 41 41 42 41 41 41 42 42 42 41 40 40 40 40 41 42 42 42 42 43 43 44 44 44 44 44 45 45 46 46 46 46 46 47
42 42 44 44 44 46 44 43 42 42 41 41 42 41 41 42 42 43 43 43 42 42 42 42 43 43 43 43 44 44 45 45 45 45 45 45 45 46 46 47 48 48 49 49
43 43 44 45 46 47 44 43 42 43 42 41 41 41 42 42 43 42 42 43 43 43 43 42 43 43 43 43 44 45 45 46 46 46 47 46 46 47 47 48 49 49 50 51
44 44 45 45 46 47 44 42 42 43 43 42 42 42 42 43 43 41 42 42 42 42 42 42 43 43 44 44 44 45 46 46 47 47 48 48 48 49 49 50 51 52 52 53
43 44 44 45 46 46 44 43 43 43 43 43 43 43 43 43 43 42 41 42 42 42 43 43 43 43 44 45 45 46 46 47 48 49 49 50 50 51 51 51 52 53 54 54
43 44 44 45 46 46 43 44 45 45 44 44 45 44 44 43 42 42 42 42 42 43 43 44 45 45 45 46 47 47 47 48 50 50 51 51 52 52 53 53 54 54 55 55
43 44 44 45 46 45 44 45 45 46 46 45 45 45 45 44 44 43 43 43 43 44 44 45 46 46 47 48 49 49 49 50 51 52 53 53 54 54 55 55 55 55 55 56
43 43 44 45 45 44 44 45 46 46 45 45 45 46 46 46 46 46 46 45 44 44 45 46 47 47 47 48 50 51 52 53 54 54 54 54 54 54 54 54 54 55 55 55
42 43 44 45 44 44 44 45 45 45 45 45 45 46 46 47 46 46 46 46 46 47 47 47 47 47 48 49 50 51 52 53 53 53 53 53 53 53 53 53 53 54 54 54
41 42 44 44 43 44 43 43 43 44 44 44 45 45 45 45 46 46 46 46 46 47 47 47 48 48 48 49 49 50 51 51 51 52 52 53 53 53 54 54 54 54 54 53
Wind_Direction
298 294 293 291 288 287 283 283 278 278 281 279 275 269 265 263 258 257 255 247 245 244 239 238 236 237 238 237 238 238 239 237 238 239 240 240 239 240 241 241 243 245 247 249
298 295 295 293 288 288 284 282 278 277 282 283 281 276 267 263 260 259 255 251 248 246 242 241 239 239 242 240 241 241 242 242 241 243 242 238 238 241 242 241 242 242 245 248
294 296 296 297 292 288 285 284 282 281 279 281 283 279 272 266 264 260 255 250 248 247 246 249 250 249 250 250 250 248 247 245 243 242 240 239 239 241 241 241 243 243 245 249
294 296 294 292 290 286 284 285 286 284 282 280 282 280 274 271 267 261 254 251 251 250 252 256 256 254 252 253 250 247 246 246 247 247 246 246 244 243 242 243 245 245 247 249
293 294 293 290 287 286 284 284 286 287 286 282 280 280 277 272 267 263 257 253 252 253 253 255 255 254 254 255 253 248 248 250 252 253 250 250 249 250 246 246 246 247 248 250
290 290 289 288 286 285 285 284 282 283 283 283 284 280 277 274 271 267 261 255 253 252 252 253 253 254 255 256 255 254 254 253 254 254 251 250 250 250 250 249 248 250 251 253
287 286 286 285 283 283 283 284 283 282 281 282 283 280 278 275 271 268 266 261 256 255 254 255 255 255 257 257 256 256 256 254 254 254 255 253 252 252 252 253 254 253 253 254
283 283 283 282 281 280 279 280 281 281 281 281 280 279 278 276 270 268 267 264 260 257 256 256 256 255 256 256 255 254 254 254 254 254 254 254 254 254 255 255 255 255 256 257
280 279 279 279 278 278 277 276 278 279 279 279 277 277 277 276 271 268 266 265 263 260 257 257 257 256 255 255 255 255 255 254 255 255 255 256 256 257 257 257 256 258 260 262
278 277 277 276 276 276 277 277 277 277 279 279 277 277 278 275 272 270 268 265 263 261 260 260 259 258 257 256 256 256 257 257 257 257 256 257 258 259 259 259 258 259 262 264
278 278 277 275 275 276 276 276 276 276 276 276 276 276 276 275 273 271 269 267 264 262 262 262 261 260 259 257 256 257 258 258 258 257 257 257 259 261 261 261 262 262 263 265
277 277 277 276 275 274 274 275 274 274 275 275 274 275 276 275 272 269 268 267 265 263 263 261 261 261 260 259 259 259 260 260 260 260 259 259 260 261 263 263 264 264 264 265
276 276 276 276 275 274 274 274 274 273 274 274 274 275 275 273 270 268 267 267 266 265 264 263 263 261 260 261 261 260 260 261 262 262 261 261 261 261 263 264 264 265 266 267
275 275 276 276 275 275 274 273 273 272 272 273 273 273 272 269 267 266 266 266 266 266 265 264 263 262 261 261 261 261 261 261 262 262 262 263 263 263 263 264 265 266 267 268
274 275 275 274 274 273 274 274 273 273 274 274 273 271 270 268 266 266 266 266 266 266 265 264 263 262 262 261 262 262 262 262 262 262 263 263 264 264 264 264 265 266 267 267
274 274 274 273 273 272 272 273 273 273 274 273 272 271 270 268 268 267 267 266 266 266 266 265 264 263 262 262 261 262 262 262 263 263 263 263 264 264 264 264 265 266 266 267
275 275 274 274 273 273 272 274 273 274 274 273 273 272 270 269 269 268 268 267 267 266 265 265 263 263 263 262 261 261 262 262 263 264 264 264 264 264 264 264 265 265 266 267
274 275 275 275 274 273 275 274 273 273 272 272 272 272 271 270 269 269 268 268 266 266 265 265 263 262 262 263 263 262 262 263 264 264 264 264 264 265 265 266 266 266 267 268
274 274 275 275 275 275 274 274 274 273 273 273 273 273 272 271 270 269 268 267 266 266 266 265 264 262 262 262 263 263 263 264 264 265 265 265 266 266 267 267 267 267 268 269
274 273 273 274 275 275 275 273 273 273 273 272 273 273 273 272 271 270 268 267 267 266 266 265 264 263 262 263 263 264 264 265 265 265 265 266 267 268 268 269 269 269 270 270
275 274 273 272 273 274 274 272 272 272 273 273 273 273 273 272 271 270 269 267 266 266 266 265 265 264 263 263 264 265 266 266 266 266 267 267 268 269 270 270 270 271 271 271
275 273 272 271 271 273 273 272 271 271 271 272 273 273 272 271 271 270 269 268 267 267 266 266 266 265 264 264 266 266 267 267 267 267 268 269 269 269 270 270 271 271 272 272
273 272 271 270 271 273 273 273 272 271 271 271 272 272 272 272 271 270 269 268 267 266 265 266 266 265 264 265 266 266 267 268 269 269 269 270 270 270 270 271 271 272 272 272
274 272 271 270 271 271 272 272 272 272 271 271 271 271 271 271 271 271 270 269 268 267 266 266 266 266 265 265 266 267 268 269 270 270 271 271 271 271 271 271 271 272 272 273
274 272 271 271 272 271 271 272 273 273 271 272 272 272 272 272 271 270 269 269 269 269 269 269 269 268 267 267 268 268 269 270 271 271 271 271 271 271 271 271 271 272 272 272
272 271 272 272 272 271 272 273 274 273 273 272 271 271 271 271 271 270 269 269 268 268 269 270 270 269 269 269 269 269 270 271 271 271 271 271 272 271 271 271 271 271 271 271
Height
5735 5736 5735 5734 5733 5733 5732 5732 5731 5731 5730 5729 5729 5729 5729 5729 5730 5731 5731 5732 5733 5734 5736 5737 5739 5740 5741 5742 5743 5745 5746 5747 5748 5749 5751 5753 5755 5757 5759 5761 5764 5767 5769 5770
5734 5734 5733 5731 5731 5730 5730 5729 5729 5729 5727 5727 5727 5727 5726 5726 5727 5727 5728 5729 5730 5731 5732 5733 5734 5735 5736 5738 5739 5740 5741 5742 5743 5743 5744 5747 5749 5750 5752 5755 5757 5760 5762 5763
5732 5732 5730 5729 5728 5728 5727 5727 5726 5726 5725 5724 5724 5724 5723 5723 5722 5723 5724 5725 5726 5728 5729 5730 5731 5732 5732 5733 5734 5735 5736 5738 5738 5738 5739 5741 5742 5744 5746 5748 5751 5753 5755 5756
5729 5728 5727 5726 5726 5725 5725 5724 5723 5722 5722 5721 5721 5720 5721 5720 5719 5719 5720 5721 5723 5724 5725 5726 5727 5728 5728 5729 5729 5730 5731 5733 5733 5733 5734 5735 5737 5738 5740 5742 5744 5746 5748 5749
5726 5725 5724 5723 5723 5721 5721 5721 5720 5719 5717 5717 5716 5715 5717 5716 5716 5716 5716 5717 5718 5719 5720 5721 5721 5723 5723 5724 5724 5724 5726 5727 5728 5728 5729 5730 5731 5732 5734 5736 5738 5739 5741 5742
5722 5721 5720 5719 5718 5718 5717 5717 5716 5714 5713 5713 5712 5711 5711 5711 5711 5711 5711 5712 5713 5714 5714 5715 5716 5717 5717 5718 5718 5718 5719 5720 5721 5722 5723 5724 5725 5726 5728 5729 5730 5732 5734 5735
5717 5716 5715 5714 5714 5713 5712 5712 5711 5709 5708 5708 5707 5706 5706 5705 5705 5705 5705 5706 5706 5707 5708 5708 5709 5710 5710 5711 5711 5712 5713 5713 5714 5715 5716 5717 5719 5720 5721 5722 5724 5725 5726 5727
5711 5711 5710 5709 5708 5707 5707 5706 5706 5704 5703 5703 5701 5700 5702 5700 5699 5699 5699 5699 5700 5700 5701 5701 5702 5702 5703 5704 5704 5705 5706 5707 5708 5709 5710 5711 5712 5713 5714 5715 5716 5717 5718 5719
5704 5704 5704 5702 5701 5701 5700 5700 5699 5697 5696 5695 5695 5695 5695 5694 5693 5692 5692 5692 5693 5693 5693 5694 5695 5695 5696 5696 5697 5697 5698 5699 5700 5701 5702 5703 5704 5705 5706 5707 5708 5708 5709 5710
5696 5696 5697 5696 5695 5694 5693 5693 5692 5690 5688 5687 5688 5688 5688 5687 5686 5686 5685 5685 5685 5685 5686 5686 5687 5688 5688 5688 5689 5689 5689 5690 5691 5691 5693 5693 5695 5696 5697 5698 5698 5699 5700 5700
5688 5688 5688 5687 5686 5686 5686 5685 5684 5682 5681 5680 5679 5682 5680 5679 5679 5678 5678 5678 5677 5677 5677 5678 5678 5679 5679 5679 5680 5680 5681 5681 5682 5682 5683 5684 5685 5686 5687 5687 5688 5689 5690 5690
5679 5678 5678 5678 5678 5677 5676 5676 5675 5675 5673 5672 5671 5675 5672 5671 5671 5670 5670 5670 5669 5669 5669 5669 5669 5669 5670 5670 5671 5671 5671 5672 5672 5673 5674 5674 5675 5676 5677 5677 5678 5678 5679 5679
5669 5669 5668 5668 5670 5668 5667 5667 5666 5664 5663 5662 5662 5666 5663 5662 5661 5661 5661 5660 5660 5660 5660 5659 5659 5659 5660 5660 5660 5661 5661 5662 5662 5662 5663 5664 5665 5665 5666 5666 5666 5667 5667 5668
5659 5658 5659 5659 5658 5656 5656 5656 5655 5653 5652 5652 5653 5654 5653 5652 5651 5651 5650 5650 5649 5649 5649 5649 5649 5649 5650 5650 5650 5650 5651 5651 5651 5652 5652 5653 5653 5654 5654 5654 5655 5655 5656 5656
5647 5647 5647 5647 5646 5645 5644 5644 5644 5642 5642 5641 5642 5642 5643 5640 5640 5639 5639 5639 5639 5639 5639 5638 5638 5638 5638 5639 5639 5639 5639 5640 5640 5640 5641 5641 5642 5642 5642 5643 5643 5644 5644 5645
5636 5636 5635 5636 5635 5633 5633 5633 5632 5631 5630 5629 5629 5630 5630 5628 5627 5628 5628 5627 5627 5627 5627 5627 5627 5627 5627 5627 5627 5627 5627 5628 5628 5628 5629 5629 5629 5630 5630 5630 5631 5631 5631 5632
5625 5623 5622 5623 5622 5620 5621 5622 5620 5619 5619 5617 5616 5618 5616 5616 5615 5615 5615 5615 5615 5615 5615 5614 5614 5614 5614 5614 5615 5615 5615 5615 5615 5616 5616 5616 5616 5617 5617 5617 5618 5618 5618 5619
5612 5610 5609 5608 5608 5607 5611 5608 5607 5605 5605 5604 5603 5603 5603 5602 5602 5601 5601 5601 5601 5602 5602 5601 5601 5601 5601 5601 5601 5602 5602 5602 5602 5602 5602 5602 5602 5603 5603 5603 5604 5604 5604 5604
5599 5598 5596 5595 5593 5593 5596 5595 5593 5591 5591 5591 5589 5590 5589 5588 5588 5588 5588 5587 5587 5588 5588 5588 5587 5587 5588 5588 5588 5588 5588 5588 5588 5588 5588 5588 5588 5589 5589 5589 5589 5589 5589 5589
5586 5584 5583 5581 5579 5579 5583 5581 5579 5578 5578 5578 5576 5576 5575 5574 5575 5576 5574 5573 5573 5573 5574 5574 5574 5574 5574 5574 5574 5574 5574 5574 5574 5574 5574 5574 5574 5574 5574 5574 5574 5574 5573 5574
5573 5570 5569 5567 5564 5565 5568 5567 5565 5566 5566 5564 5563 5562 5562 5561 5561 5561 5560 5560 5560 5560 5560 5560 5560 5560 5560 5559 5559 5560 5560 5560 5559 5559 5559 5559 5559 5559 5558 5558 5558 5557 5557 5557
5559 5557 5555 5553 5551 5554 5554 5552 5552 5551 5550 5549 5548 5548 5548 5547 5547 5547 5546 5546 5546 5546 5546 5545 5545 5545 5545 5545 5545 5545 5545 5544 5544 5544 5544 5544 5543 5543 5542 5542 5542 5541 5540 5540
5544 5544 5541 5540 5541 5540 5539 5537 5536 5536 5536 5535 5534 5534 5534 5533 5533 5533 5532 5532 5532 5531 5531 5531 5530 5530 5530 5530 5529 5530 5529 5528 5528 5528 5528 5527 5526 5526 5525 5525 5525 5524 5523 5523
5530 5528 5526 5525 5526 5526 5524 5523 5522 5521 5521 5521 5520 5520 5519 5519 5519 5518 5518 5518 5517 5517 5516 5515 5515 5515 5515 5514 5514 5513 5513 5512 5512 5511 5511 5510 5510 5509 5508 5508 5507 5507 5506 5506
5517 5514 5512 5511 5512 5511 5511 5509 5508 5507 5506 5506 5505 5505 5504 5504 5504 5504 5503 5503 5502 5502 5501 5500 5500 5500 5499 5499 5498 5497 5496 5495 5495 5494 5494 5493 5492 5492 5491 5491 5490 5490 5490 5488
5504 5500 5497 5497 5498 5496 5497 5496 5494 5493 5492 5491 5491 5491 5490 5489 5489 5488 5488 5487 5487 5487 5486 5485 5485 5484 5484 5483 5483 5481 5480 5479 5478 5478 5477 5476 5475 5474 5474 5473 5473 5472 5472 5471